Flag for Canada Weather past 2 weeks in Pond Inlet, Nunavut Territory, Canada

Now
46 °F

Passing clouds.


Feels Like: 44 °F
Forecast: 44 / 53 °F
Wind: 5 mph from West

Location: Pond Inlet

Current Time: Jul 24, 2014 at 12:53:58 PM

Latest Report: Jul 24, 2014 at 12:00 PM


Visibility: 40 mi

Pressure: 30.04 "Hg

Humidity: 76%

Dew point: 39 °F

Location of Pond InletLocation

Historic Weather in Pond Inlet — Graph

°F

Pond Inlet temperature yesterday

Maximum temperature yesterday: 52 °F (at 1:00 PM)
Minimum temperature yesterday: 43 °F (at 6:00 AM)
Average temperature yesterday: 48 °F

Past Weeks' High & Low Weather Summary

 TemperatureHumidityPressure
High59 °F (Jul 10, 7:00 PM)100% (Jul 12, 6:00 AM)30.20 "Hg (Jul 12, 6:00 AM)
Low37 °F (Jul 13, 5:00 AM)45% (Jul 10, 7:00 PM)29.36 "Hg (Jul 18, 12:00 PM)
Average48 °F80%29.77 "Hg
* Reported Jul 9 11:00 AM — Jul 24 11:00 AM, Pond Inlet, Weather by CustomWeather, © 2014

Note: Actual official high and low records may vary slightly from our data, if they occured in-between our weather recording intervals... More about our weather records

Advertising

Pond Inlet weather history for previous 24 hours

 ConditionsComfort  
Time TempWeatherWind HumidityBarometerVisibility
11:00 AM
Jul 24
45 °FPassing clouds.3 mph81%30.03 "Hg45 mi
10:00 AM45 °FSunny.5 mph81%30.03 "Hg9 mi
9:00 AM41 °FSunny.2 mph87%30.04 "Hg8 mi
8:00 AM43 °FSunny.3 mph81%30.03 "Hg9 mi
7:00 AM39 °FSunny.6 mph93%30.03 "Hg9 mi
6:00 AM37 °FSunny.3 mph93%30.02 "Hg9 mi
5:00 AM37 °FSunny.2 mph93%30.01 "Hg9 mi
4:00 AM37 °FSunny.5 mph87%29.99 "Hg9 mi
3:00 AM41 °FSunny.6 mph87%29.98 "Hg9 mi
2:00 AM43 °FSunny.3 mph87%29.97 "Hg9 mi
1:00 AM43 °FSunny.No wind87%29.96 "Hg9 mi
12:00 AM46 °FSunny.3 mph82%29.95 "Hg9 mi
11:00 PM
Jul 23
50 °FSunny.7 mph71%29.94 "Hg9 mi
10:00 PM48 °FSunny.5 mph76%29.95 "Hg9 mi
9:00 PM50 °FSunny.2 mph76%29.94 "Hg9 mi
8:00 PM50 °FSunny.8 mph71%29.94 "Hg9 mi
7:00 PM52 °FSunny.6 mph72%29.93 "Hg9 mi
6:00 PM52 °FSunny.6 mph72%29.93 "Hg9 mi
5:00 PM50 °FPassing clouds.6 mph71%29.92 "Hg30 mi
4:00 PM48 °FPassing clouds.2 mph82%29.92 "Hg30 mi
3:00 PM50 °FPassing clouds.3 mph76%29.91 "Hg30 mi
2:00 PM52 °FPassing clouds.2 mph72%29.90 "Hg30 mi
1:00 PM52 °FPassing clouds.5 mph72%29.91 "Hg30 mi
12:00 PM46 °FPassing clouds.2 mph76%29.91 "Hg30 mi
Weather by CustomWeather, © 2014

See weather overviewHow to use our weather pages